This demonstration page uses our WeatherBlox Daily Observations layout. Learn more.

Left ArrowRight Arrow

39.01783, -85.05884

Hourly Observations for September 25, 2022

Temp ( °F °C ) Dew Point ( °F °C ) Humidity (%) Winds ( mph kmh ) Pressure ( in mb ) Visibility ( mi km ) Precip ( " mm )
12:52 am 00:52 Mostly Clear 62 16.7 59 15 90 90 SSW 10 17 29.82 1010 10 16 0.00 0.00
1:52 am 01:52 Mostly Clear 61 16.1 59 15 93 93 SSW 9 15 29.80 1009 10 16 0.00 0.00
2:52 am 02:52 Mostly Cloudy 61 16.1 59 15 93 93 SSW 6 9 29.79 1009 10 16 0.00 0.00
3:52 am 03:52 Mostly Cloudy 60 15.6 59 15 96 96 SSW 6 9 29.77 1008 10 16 0.00 0.00
4:52 am 04:52 Cloudy 61 16.1 59 15 93 93 S 10 17 29.73 1007 10 16 0.00 0.00
5:52 am 05:52 Cloudy 62 16.7 59 15 90 90 SSW 10 17 29.72 1007 10 16 0.00 0.00
6:52 am 06:52 Mostly Cloudy 62 16.7 59 15 90 90 WSW 7 11 29.74 1007 10 16 0.00 0.00
7:52 am 07:52 Mostly Cloudy with Light Rain 63 17.2 59 15 87 87 W 14 22 29.79 1009 7 11 0.01 0.13
8:01 am 08:01 Mostly Cloudy with Nearby Thunderstorms 63 17.2 59 15 87 87 WSW 15 24 29.80 1009 3 4 0.01 0.25
8:22 am 08:22 Mostly Cloudy with Mist and Fog 62 16.7 59 15 90 90 WSW 14 22 29.80 1009 3 4 0.06 1.52
8:44 am 08:44 Mostly Cloudy 62 16.7 58 14.4 86 86 SW 9 15 29.76 1008 10 16 0.08 2.03
8:52 am 08:52 Mostly Cloudy 62 16.7 58 14.4 86 86 WSW 6 9 29.76 1008 10 16 0.08 2.03
9:52 am 09:52 Mostly Cloudy 63 17.2 59 15 87 87 WSW 9 15 29.77 1008 10 16 0.00 0.00
10:52 am 10:52 Partly Cloudy 66 18.9 57 13.9 73 73 W 10 17 29.76 1008 10 16 0.00 0.00
11:52 am 11:52 Partly Cloudy 68 20 55 12.8 63 63 W 16 26 29.77 1008 10 16 0.00 0.00
12:52 pm 12:52 Partly Cloudy 70 21.1 52 11.1 53 53 WNW 18 30 29.76 1008 10 16 0.00 0.00
1:52 pm 13:52 Partly Cloudy 73 22.8 52 11.1 48 48 W 16 26 29.75 1008 10 16 0.00 0.00
2:52 pm 14:52 Partly Cloudy 72 22.2 52 11.1 49 49 W 17 28 29.75 1007 10 16 0.00 0.00
3:52 pm 15:52 Mostly Cloudy 72 22.2 52 11.1 49 49 WNW 16 26 29.75 1008 10 16 0.00 0.00
4:52 pm 16:52 Mostly Cloudy 73 22.8 52 11.1 48 48 WNW 18 30 29.76 1008 10 16 0.00 0.00
5:52 pm 17:52 Cloudy 70 21.1 51 10.6 51 51 W 17 28 29.78 1008 10 16 0.00 0.00
6:52 pm 18:52 Cloudy 68 20 51 10.6 55 55 WNW 17 28 29.79 1009 10 16 0.00 0.00
7:52 pm 19:52 Mostly Clear 64 17.8 51 10.6 63 63 W 12 19 29.80 1009 10 16 0.00 0.00
8:52 pm 20:52 Mostly Clear 60 15.6 51 10.6 72 72 W 5 7 29.81 1010 10 16 0.00 0.00
9:52 pm 21:52 Clear 59 15 52 11.1 77 77 SW 5 7 29.81 1010 10 16 0.00 0.00
10:52 pm 22:52 Clear 58 14.4 52 11.1 81 81 WSW 5 7 29.81 1010 10 16 0.00 0.00
11:52 pm 23:52 Mostly Clear 58 14.4 52 11.1 81 81 W 8 13 29.82 1010 10 16 0.00 0.00

Powered by AerisWeather